Private Wetterstation Wechselburg
Wetterdaten: Freitag, 08.01.2016
Datum Zeit Temp. +2m Bodentemp. Temp.+5cm Temp. Wind Windchill X Diff Temp. Feuchte +2m Feuchte +5cm Sonnenschein Luftdruck Regen Wind Richtung Richtung Sonnenschein Taupunkt Windchill Windben
08.01.2016 00:00 1,3 C 21,2 C 1,6 C 2,1 C 2,1 C 0,8 C 83 % 89 % 0 % 998,7 hPa 0,0 l/m 1,6 km/h (1 Bft) SW 225 0 min -1,3 C 2,1 C 5,1 km/h (1 Bft)
08.01.2016 00:05 1,3 C 21,2 C 1,6 C 2,2 C 2,2 C 0,9 C 83 % 89 % 0 % 998,7 hPa 0,0 l/m 2,1 km/h (1 Bft) S 180 0 min -1,3 C 2,2 C 8,9 km/h (2 Bft)
08.01.2016 00:10 1,7 C 21,1 C 2,0 C 1,6 C 1,5 C 0,0 C 84 % 90 % 0 % 998,5 hPa 0,0 l/m 5,5 km/h (1 Bft) S-SO 157 0 min -0,7 C -0,1 C 11,7 km/h (2 Bft)
08.01.2016 00:15 2,0 C 21,1 C 2,3 C 1,7 C 1,2 C 0,0 C 84 % 90 % 0 % 998,5 hPa 0,0 l/m 6,4 km/h (2 Bft) SW 225 0 min -0,4 C -0,8 C 6,0 km/h (2 Bft)
08.01.2016 00:20 2,4 C 21,2 C 2,7 C 2,1 C 1,4 C 0,0 C 84 % 90 % 0 % 998,5 hPa 0,0 l/m 6,8 km/h (2 Bft) S-SO 157 0 min -0,0 C -0,7 C 14,0 km/h (3 Bft)
08.01.2016 00:25 2,7 C 21,1 C 2,8 C 2,4 C 1,8 C 0,0 C 84 % 90 % 0 % 998,5 hPa 0,0 l/m 6,3 km/h (2 Bft) O 90 0 min 0,3 C -0,1 C 3,7 km/h (1 Bft)
08.01.2016 00:30 2,8 C 21,1 C 3,1 C 2,6 C 2,3 C 0,0 C 84 % 90 % 0 % 998,1 hPa 0,0 l/m 5,1 km/h (1 Bft) O-SO 112 0 min 0,4 C 1,0 C 1,9 km/h (1 Bft)
08.01.2016 00:35 2,8 C 21,1 C 3,2 C 2,9 C 2,9 C 0,1 C 84 % 89 % 0 % 998,1 hPa 0,0 l/m 4,5 km/h (1 Bft) S 180 0 min 0,4 C 2,9 C 15,1 km/h (3 Bft)
08.01.2016 00:41 3,1 C 21,1 C 3,3 C 3,1 C 3,0 C 0,0 C 83 % 89 % 0 % 998,1 hPa 0,0 l/m 4,8 km/h (1 Bft) N 0 0 min 0,5 C 1,9 C 9,3 km/h (2 Bft)
08.01.2016 00:50 3,2 C 21,1 C 3,5 C 3,1 C 2,8 C 0,0 C 83 % 89 % 0 % 998,4 hPa 0,0 l/m 6,3 km/h (2 Bft) SO 135 0 min 0,6 C 1,1 C 13,0 km/h (3 Bft)
08.01.2016 00:55 3,3 C 21,1 C 3,5 C 3,2 C 2,9 C 0,0 C 83 % 89 % 0 % 998,4 hPa 0,0 l/m 6,0 km/h (2 Bft) SO 135 0 min 0,7 C 1,3 C 6,3 km/h (2 Bft)
08.01.2016 01:00 3,3 C 21,1 C 3,6 C 3,1 C 2,7 C 0,0 C 83 % 89 % 0 % 998,4 hPa 0,0 l/m 6,4 km/h (2 Bft) O 90 0 min 0,7 C 0,9 C 21,2 km/h (4 Bft)
08.01.2016 01:05 3,3 C 21,1 C 3,7 C 3,1 C 2,6 C 0,0 C 83 % 89 % 0 % 998,4 hPa 0,0 l/m 6,6 km/h (2 Bft) NW 315 0 min 0,7 C 0,8 C 5,3 km/h (1 Bft)
08.01.2016 01:10 3,3 C 21,2 C 3,6 C 3,0 C 2,5 C 0,0 C 83 % 89 % 0 % 998,3 hPa 0,0 l/m 6,4 km/h (2 Bft) S 180 0 min 0,7 C 0,7 C 11,4 km/h (2 Bft)
08.01.2016 01:15 3,3 C 21,2 C 3,6 C 3,1 C 2,8 C 0,0 C 83 % 89 % 0 % 998,3 hPa 0,0 l/m 5,3 km/h (1 Bft) N-NW 337 0 min 0,7 C 1,5 C 8,0 km/h (2 Bft)
08.01.2016 01:20 3,2 C 21,2 C 3,6 C 3,0 C 2,6 C 0,0 C 83 % 89 % 0 % 998,3 hPa 0,0 l/m 5,5 km/h (1 Bft) N 360 0 min 0,6 C 1,2 C 8,5 km/h (2 Bft)
08.01.2016 01:25 3,3 C 21,2 C 3,6 C 3,1 C 2,6 C 0,0 C 83 % 89 % 0 % 998,3 hPa 0,0 l/m 6,0 km/h (2 Bft) S 180 0 min 0,7 C 1,0 C 5,0 km/h (1 Bft)
08.01.2016 01:30 3,3 C 21,2 C 3,6 C 3,1 C 2,8 C 0,0 C 83 % 89 % 0 % 998,1 hPa 0,0 l/m 5,6 km/h (1 Bft) N-NO 22 0 min 0,7 C 1,3 C 7,1 km/h (2 Bft)
08.01.2016 01:35 3,3 C 21,2 C 3,7 C 3,2 C 3,0 C 0,0 C 83 % 89 % 0 % 998,1 hPa 0,0 l/m 5,1 km/h (1 Bft) S 180 0 min 0,7 C 1,8 C 10,3 km/h (2 Bft)
08.01.2016 01:40 3,3 C 21,2 C 3,7 C 3,2 C 3,0 C 0,0 C 83 % 89 % 0 % 998,1 hPa 0,0 l/m 5,5 km/h (1 Bft) O-SO 112 0 min 0,7 C 1,6 C 6,0 km/h (2 Bft)
08.01.2016 01:45 3,3 C 21,2 C 3,8 C 3,2 C 3,1 C 0,0 C 83 % 89 % 0 % 998,1 hPa 0,0 l/m 5,6 km/h (1 Bft) SO 135 0 min 0,7 C 1,7 C 5,3 km/h (1 Bft)
08.01.2016 01:50 3,3 C 21,2 C 3,7 C 3,3 C 3,3 C 0,0 C 83 % 89 % 0 % 998,6 hPa 0,0 l/m 5,3 km/h (1 Bft) S 180 0 min 0,7 C 2,0 C 8,7 km/h (2 Bft)
08.01.2016 01:55 3,4 C 21,2 C 3,7 C 3,6 C 3,6 C 0,2 C 83 % 89 % 0 % 998,6 hPa 0,0 l/m 4,8 km/h (1 Bft) W-SW 247 0 min 0,8 C 2,6 C 6,8 km/h (2 Bft)
08.01.2016 02:00 3,5 C 21,2 C 3,8 C 3,5 C 3,4 C 0,0 C 84 % 89 % 0 % 998,6 hPa 0,0 l/m 5,3 km/h (1 Bft) W 270 0 min 1,1 C 2,1 C 7,4 km/h (2 Bft)
08.01.2016 02:05 3,5 C 21,2 C 3,7 C 3,4 C 3,1 C 0,0 C 84 % 89 % 0 % 998,6 hPa 0,0 l/m 6,1 km/h (2 Bft) NW 315 0 min 1,1 C 1,5 C 10,3 km/h (2 Bft)
08.01.2016 02:10 3,5 C 21,2 C 3,7 C 3,3 C 2,9 C 0,0 C 83 % 89 % 0 % 998,9 hPa 0,7 l/m 7,2 km/h (2 Bft) W-SW 247 0 min 0,9 C 0,9 C 9,8 km/h (2 Bft)
08.01.2016 02:15 3,7 C 21,2 C 3,9 C 3,6 C 2,7 C 0,0 C 83 % 89 % 0 % 998,9 hPa 0,0 l/m 8,5 km/h (2 Bft) W-SW 247 0 min 1,1 C 0,3 C 14,2 km/h (3 Bft)
08.01.2016 02:20 3,8 C 21,3 C 3,9 C 3,7 C 2,8 C 0,0 C 82 % 89 % 0 % 998,9 hPa 0,0 l/m 9,5 km/h (2 Bft) S-SO 157 0 min 1,0 C 0,2 C 11,6 km/h (2 Bft)
08.01.2016 02:25 3,9 C 21,3 C 4,0 C 3,8 C 3,0 C 0,0 C 83 % 89 % 0 % 998,9 hPa 0,0 l/m 9,0 km/h (2 Bft) O-NO 67 0 min 1,3 C 0,5 C 16,7 km/h (3 Bft)
08.01.2016 02:30 3,9 C 21,4 C 3,9 C 3,8 C 2,8 C 0,0 C 82 % 88 % 0 % 999,9 hPa 0,0 l/m 9,0 km/h (2 Bft) W-SW 247 0 min 1,1 C 0,3 C 12,6 km/h (3 Bft)
08.01.2016 02:35 4,1 C 21,4 C 4,0 C 3,9 C 2,6 C 0,0 C 81 % 88 % 0 % 999,9 hPa 0,0 l/m 10,5 km/h (2 Bft) W-SW 247 0 min 1,1 C -0,3 C 16,9 km/h (3 Bft)
08.01.2016 02:40 4,3 C 21,4 C 4,0 C 3,7 C 2,6 C 0,0 C 80 % 88 % 0 % 999,9 hPa 0,0 l/m 11,7 km/h (2 Bft) W 270 0 min 1,2 C -0,6 C 11,7 km/h (2 Bft)
08.01.2016 02:45 4,4 C 21,4 C 4,1 C 4,1 C 2,4 C 0,0 C 80 % 87 % 0 % 999,9 hPa 0,0 l/m 12,6 km/h (3 Bft) W 270 0 min 1,3 C -1,0 C 24,3 km/h (4 Bft)
08.01.2016 02:50 4,5 C 21,4 C 4,0 C 4,1 C 2,1 C 0,0 C 79 % 86 % 0 % 1000,4 hPa 0,0 l/m 13,5 km/h (3 Bft) S 180 0 min 1,2 C -1,6 C 13,4 km/h (3 Bft)
08.01.2016 02:55 4,5 C 21,4 C 4,0 C 3,7 C 2,1 C 0,0 C 79 % 86 % 0 % 1000,4 hPa 0,0 l/m 12,9 km/h (3 Bft) SW 225 0 min 1,2 C -1,4 C 28,2 km/h (4 Bft)
08.01.2016 03:00 4,5 C 21,3 C 3,8 C 4,0 C 1,9 C 0,0 C 79 % 86 % 0 % 1000,4 hPa 0,0 l/m 12,2 km/h (2 Bft) W-SW 247 0 min 1,2 C -1,5 C 16,3 km/h (3 Bft)
08.01.2016 03:05 4,5 C 21,3 C 3,9 C 3,6 C 1,9 C 0,0 C 78 % 86 % 0 % 1000,4 hPa 0,0 l/m 12,2 km/h (2 Bft) S-SW 202 0 min 1,0 C -1,5 C 14,3 km/h (3 Bft)
08.01.2016 03:10 4,5 C 21,3 C 3,9 C 3,9 C 1,5 C 0,0 C 78 % 85 % 0 % 1000,6 hPa 0,0 l/m 12,7 km/h (3 Bft) SW 225 0 min 1,0 C -2,1 C 16,9 km/h (3 Bft)
08.01.2016 03:15 4,7 C 21,3 C 3,7 C 3,6 C 1,5 C 0,0 C 77 % 85 % 0 % 1000,6 hPa 0,0 l/m 12,9 km/h (3 Bft) SW 225 0 min 1,0 C -2,2 C 16,1 km/h (3 Bft)
08.01.2016 03:20 4,4 C 21,3 C 3,6 C 3,7 C 1,1 C 0,0 C 77 % 84 % 0 % 1000,6 hPa 0,0 l/m 12,9 km/h (3 Bft) W-NW 292 0 min 0,7 C -2,7 C 17,5 km/h (3 Bft)
08.01.2016 03:25 4,5 C 21,3 C 3,7 C 3,7 C 1,0 C 0,0 C 77 % 84 % 0 % 1000,6 hPa 0,0 l/m 12,9 km/h (3 Bft) W-SW 247 0 min 0,8 C -2,8 C 18,8 km/h (3 Bft)
08.01.2016 03:30 4,3 C 21,3 C 3,5 C 3,6 C 1,2 C 0,0 C 77 % 85 % 0 % 1000,9 hPa 0,0 l/m 11,9 km/h (2 Bft) W-SW 247 0 min 0,6 C -2,3 C 10,3 km/h (2 Bft)
08.01.2016 03:35 4,3 C 21,3 C 3,3 C 3,6 C 1,3 C 0,0 C 77 % 85 % 0 % 1000,9 hPa 0,0 l/m 10,3 km/h (2 Bft) W-SW 247 0 min 0,6 C -1,8 C 10,5 km/h (2 Bft)
08.01.2016 03:41 4,2 C 21,3 C 3,2 C 3,5 C 1,4 C 0,0 C 78 % 85 % 0 % 1000,9 hPa 0,0 l/m 9,2 km/h (2 Bft) N 0 0 min 0,7 C -1,4 C 12,1 km/h (2 Bft)
08.01.2016 03:50 4,3 C 21,3 C 3,3 C 3,5 C 0,9 C 0,0 C 77 % 85 % 0 % 1001,3 hPa 0,0 l/m 11,7 km/h (2 Bft) S 180 0 min 0,6 C -2,6 C 13,2 km/h (3 Bft)
08.01.2016 03:55 4,4 C 21,3 C 3,3 C 3,6 C 1,1 C 0,0 C 77 % 84 % 0 % 1001,3 hPa 0,0 l/m 11,9 km/h (2 Bft) SW 225 0 min 0,7 C -2,4 C 10,6 km/h (2 Bft)
08.01.2016 04:00 4,3 C 21,3 C 3,2 C 3,2 C 1,1 C 0,0 C 76 % 84 % 0 % 1001,3 hPa 0,0 l/m 11,1 km/h (2 Bft) SW 225 0 min 0,5 C -2,3 C 16,4 km/h (3 Bft)
08.01.2016 04:05 4,3 C 21,3 C 3,2 C 3,6 C 1,2 C 0,0 C 76 % 84 % 0 % 1001,3 hPa 0,0 l/m 10,6 km/h (2 Bft) S 180 0 min 0,5 C -2,0 C 10,3 km/h (2 Bft)
08.01.2016 04:10 4,3 C 21,3 C 3,1 C 3,3 C 1,2 C 0,0 C 76 % 84 % 0 % 1001,3 hPa 0,0 l/m 9,8 km/h (2 Bft) W-SW 247 0 min 0,5 C -1,8 C 14,6 km/h (3 Bft)
08.01.2016 04:15 4,3 C 21,3 C 3,1 C 3,4 C 1,6 C 0,0 C 76 % 84 % 0 % 1001,3 hPa 0,0 l/m 7,6 km/h (2 Bft) SW 225 0 min 0,5 C -0,7 C 5,6 km/h (1 Bft)
08.01.2016 04:20 4,1 C 21,3 C 2,7 C 3,4 C 2,1 C 0,0 C 76 % 84 % 0 % 1001,3 hPa 0,0 l/m 4,8 km/h (1 Bft) O-NO 67 0 min 0,3 C 0,9 C 0,0 km/h (0 Bft)
08.01.2016 04:25 3,9 C 21,3 C 2,3 C 3,5 C 2,8 C 0,0 C 76 % 84 % 0 % 1001,3 hPa 0,0 l/m 2,4 km/h (1 Bft) S 180 0 min 0,1 C 2,8 C 2,9 km/h (1 Bft)
08.01.2016 04:30 3,6 C 21,3 C 2,2 C 3,2 C 2,3 C 0,0 C 76 % 85 % 0 % 1001,6 hPa 0,0 l/m 1,3 km/h (1 Bft) S 180 0 min -0,2 C 2,3 C 4,3 km/h (1 Bft)
08.01.2016 04:35 3,5 C 21,3 C 2,2 C 3,1 C 2,2 C 0,0 C 76 % 85 % 0 % 1001,6 hPa 0,0 l/m 2,1 km/h (1 Bft) SO 135 0 min -0,3 C 2,2 C 8,0 km/h (2 Bft)
08.01.2016 04:40 3,4 C 21,3 C 2,3 C 2,8 C 1,6 C 0,0 C 77 % 85 % 0 % 1001,6 hPa 0,0 l/m 3,7 km/h (1 Bft) NW 315 0 min -0,2 C 1,6 C 9,3 km/h (2 Bft)
08.01.2016 04:45 3,5 C 21,3 C 2,3 C 2,7 C 1,1 C 0,0 C 77 % 85 % 0 % 1001,6 hPa 0,0 l/m 4,7 km/h (1 Bft) S-SW 202 0 min -0,1 C -0,2 C 9,8 km/h (2 Bft)
08.01.2016 04:50 3,3 C 21,3 C 2,1 C 2,4 C 0,7 C 0,0 C 77 % 85 % 0 % 1001,6 hPa 0,0 l/m 5,6 km/h (1 Bft) W-SW 247 0 min -0,3 C -1,1 C 7,4 km/h (2 Bft)
08.01.2016 04:55 3,3 C 21,3 C 2,2 C 2,3 C 0,3 C 0,0 C 76 % 85 % 0 % 1001,6 hPa 0,0 l/m 6,6 km/h (2 Bft) W-SW 247 0 min -0,5 C -1,9 C 14,8 km/h (3 Bft)
08.01.2016 05:00 3,5 C 21,3 C 2,4 C 2,4 C 0,3 C 0,0 C 76 % 84 % 0 % 1001,6 hPa 0,0 l/m 8,5 km/h (2 Bft) SW 225 0 min -0,3 C -2,5 C 8,0 km/h (2 Bft)
08.01.2016 05:05 3,6 C 21,3 C 2,5 C 2,5 C 0,3 C 0,0 C 75 % 84 % 0 % 1001,6 hPa 0,0 l/m 8,7 km/h (2 Bft) S-SO 157 0 min -0,4 C -2,6 C 12,6 km/h (3 Bft)
08.01.2016 05:10 3,7 C 21,3 C 2,4 C 2,9 C 1,2 C 0,0 C 75 % 83 % 0 % 1001,8 hPa 0,0 l/m 6,6 km/h (2 Bft) W-NW 292 0 min -0,3 C -0,9 C 4,3 km/h (1 Bft)
08.01.2016 05:15 3,7 C 21,3 C 2,4 C 3,0 C 1,5 C 0,0 C 75 % 83 % 0 % 1001,8 hPa 0,0 l/m 5,5 km/h (1 Bft) W-SW 247 0 min -0,3 C -0,1 C 10,3 km/h (2 Bft)
08.01.2016 05:20 3,6 C 21,3 C 2,5 C 2,9 C 1,6 C 0,0 C 75 % 83 % 0 % 1001,8 hPa 0,0 l/m 4,8 km/h (1 Bft) O 90 0 min -0,4 C 0,3 C 4,2 km/h (1 Bft)
08.01.2016 05:25 3,6 C 21,3 C 2,4 C 3,0 C 1,9 C 0,0 C 75 % 83 % 0 % 1001,8 hPa 0,0 l/m 4,0 km/h (1 Bft) N-NW 337 0 min -0,4 C 1,9 C 3,2 km/h (1 Bft)
08.01.2016 05:30 3,6 C 21,3 C 2,6 C 3,3 C 2,7 C 0,0 C 75 % 83 % 0 % 1001,6 hPa 0,0 l/m 2,7 km/h (1 Bft) SO 135 0 min -0,4 C 2,7 C 5,0 km/h (1 Bft)
08.01.2016 05:35 3,6 C 21,3 C 2,7 C 3,2 C 2,4 C 0,0 C 75 % 83 % 0 % 1001,6 hPa 0,0 l/m 3,2 km/h (1 Bft) SW 225 0 min -0,4 C 2,4 C 8,5 km/h (2 Bft)
08.01.2016 05:40 3,8 C 21,3 C 2,8 C 3,1 C 1,7 C 0,0 C 74 % 82 % 0 % 1001,6 hPa 0,0 l/m 5,1 km/h (1 Bft) S-SO 157 0 min -0,4 C 0,3 C 12,9 km/h (3 Bft)
08.01.2016 05:45 3,9 C 21,3 C 2,8 C 3,1 C 1,4 C 0,0 C 74 % 82 % 0 % 1001,6 hPa 0,0 l/m 6,6 km/h (2 Bft) SW 225 0 min -0,3 C -0,6 C 11,4 km/h (2 Bft)
08.01.2016 05:50 4,1 C 21,3 C 2,7 C 3,4 C 1,1 C 0,0 C 73 % 81 % 0 % 1001,7 hPa 0,0 l/m 7,9 km/h (2 Bft) S-SO 157 0 min -0,3 C -1,4 C 10,1 km/h (2 Bft)
08.01.2016 05:55 4,0 C 21,3 C 2,7 C 3,0 C 1,1 C 0,0 C 73 % 81 % 0 % 1001,7 hPa 0,0 l/m 7,9 km/h (2 Bft) O-SO 112 0 min -0,4 C -1,4 C 2,6 km/h (1 Bft)
08.01.2016 06:00 3,9 C 21,3 C 2,5 C 3,2 C 1,7 C 0,0 C 74 % 81 % 0 % 1001,7 hPa 0,0 l/m 5,3 km/h (1 Bft) N-NO 22 0 min -0,3 C 0,2 C 2,3 km/h (1 Bft)
08.01.2016 06:05 3,7 C 21,3 C 2,4 C 3,1 C 2,0 C 0,0 C 74 % 81 % 0 % 1001,7 hPa 0,0 l/m 4,0 km/h (1 Bft) NW 315 0 min -0,5 C 2,0 C 1,9 km/h (1 Bft)
08.01.2016 06:10 3,6 C 21,3 C 2,4 C 2,9 C 1,6 C 0,0 C 74 % 82 % 0 % 1002,6 hPa 0,0 l/m 4,0 km/h (1 Bft) SW 225 0 min -0,6 C 1,6 C 8,2 km/h (2 Bft)
08.01.2016 06:15 3,6 C 21,4 C 2,5 C 2,8 C 1,3 C 0,0 C 74 % 82 % 0 % 1002,6 hPa 0,0 l/m 6,0 km/h (2 Bft) SW 225 0 min -0,6 C -0,5 C 8,4 km/h (2 Bft)
08.01.2016 06:20 3,6 C 21,4 C 2,7 C 2,9 C 1,4 C 0,0 C 74 % 82 % 0 % 1002,6 hPa 0,0 l/m 6,6 km/h (2 Bft) SW 225 0 min -0,6 C -0,6 C 13,8 km/h (3 Bft)
08.01.2016 06:25 3,7 C 21,4 C 2,7 C 3,0 C 1,5 C 0,0 C 74 % 82 % 0 % 1002,6 hPa 0,0 l/m 6,6 km/h (2 Bft) W-SW 247 0 min -0,5 C -0,5 C 7,6 km/h (2 Bft)
08.01.2016 06:30 3,7 C 21,4 C 2,7 C 3,0 C 1,7 C 0,0 C 74 % 82 % 0 % 1002,4 hPa 0,0 l/m 6,6 km/h (2 Bft) W-SW 247 0 min -0,5 C -0,3 C 9,0 km/h (2 Bft)
08.01.2016 06:35 3,9 C 21,4 C 2,8 C 3,1 C 1,6 C 0,0 C 74 % 82 % 0 % 1002,4 hPa 0,0 l/m 7,1 km/h (2 Bft) W-SW 247 0 min -0,3 C -0,6 C 11,3 km/h (2 Bft)
08.01.2016 06:41 3,9 C 21,4 C 2,8 C 3,1 C 1,5 C 0,0 C 74 % 82 % 0 % 1002,4 hPa 0,0 l/m 7,4 km/h (2 Bft) N 0 0 min -0,3 C -0,8 C 8,4 km/h (2 Bft)
08.01.2016 06:50 3,8 C 21,4 C 2,9 C 3,2 C 2,0 C 0,0 C 74 % 82 % 0 % 1002,9 hPa 0,0 l/m 5,6 km/h (1 Bft) S-SO 157 0 min -0,4 C 0,4 C 9,8 km/h (2 Bft)
08.01.2016 06:55 3,8 C 21,4 C 2,9 C 3,3 C 2,4 C 0,0 C 74 % 81 % 0 % 1002,9 hPa 0,0 l/m 4,5 km/h (1 Bft) O-SO 112 0 min -0,4 C 2,4 C 4,7 km/h (1 Bft)
08.01.2016 07:00 3,7 C 21,4 C 2,9 C 3,3 C 2,6 C 0,0 C 74 % 81 % 0 % 1002,9 hPa 0,0 l/m 3,7 km/h (1 Bft) N 360 0 min -0,5 C 2,6 C 4,7 km/h (1 Bft)
08.01.2016 07:05 3,7 C 21,4 C 2,9 C 3,3 C 2,4 C 0,0 C 74 % 81 % 0 % 1002,9 hPa 0,0 l/m 3,7 km/h (1 Bft) S 180 0 min -0,5 C 2,4 C 5,0 km/h (1 Bft)
08.01.2016 07:10 3,6 C 21,4 C 2,8 C 2,9 C 1,6 C 0,0 C 74 % 81 % 0 % 1002,7 hPa 0,0 l/m 5,1 km/h (1 Bft) SO 135 0 min -0,6 C 0,2 C 4,5 km/h (1 Bft)
08.01.2016 07:15 3,6 C 21,4 C 2,7 C 2,8 C 1,1 C 0,0 C 74 % 81 % 0 % 1002,7 hPa 0,0 l/m 6,3 km/h (2 Bft) SO 135 0 min -0,6 C -0,9 C 11,4 km/h (2 Bft)
08.01.2016 07:20 3,6 C 21,4 C 2,7 C 2,7 C 0,9 C 0,0 C 75 % 81 % 0 % 1002,7 hPa 0,0 l/m 6,8 km/h (2 Bft) S 180 0 min -0,4 C -1,3 C 8,2 km/h (2 Bft)
08.01.2016 07:25 3,6 C 21,4 C 2,7 C 2,7 C 1,0 C 0,0 C 75 % 81 % 0 % 1002,7 hPa 0,0 l/m 6,8 km/h (2 Bft) S 180 0 min -0,4 C -1,2 C 12,1 km/h (2 Bft)
08.01.2016 07:30 3,6 C 21,4 C 2,7 C 2,9 C 1,4 C 0,0 C 75 % 81 % 0 % 1003,0 hPa 0,0 l/m 5,6 km/h (1 Bft) SO 135 0 min -0,4 C -0,3 C 9,7 km/h (2 Bft)
08.01.2016 07:35 3,5 C 21,4 C 2,7 C 2,9 C 1,7 C 0,0 C 75 % 81 % 0 % 1003,0 hPa 0,0 l/m 4,7 km/h (1 Bft) S 180 0 min -0,5 C 0,5 C 7,9 km/h (2 Bft)
08.01.2016 07:40 3,5 C 21,4 C 2,6 C 2,9 C 1,7 C 0,0 C 75 % 82 % 0 % 1003,0 hPa 0,0 l/m 4,2 km/h (1 Bft) O-NO 67 0 min -0,5 C 1,7 C 3,7 km/h (1 Bft)
08.01.2016 07:45 3,3 C 21,4 C 2,5 C 2,8 C 1,7 C 0,0 C 76 % 82 % 0 % 1003,0 hPa 0,0 l/m 4,0 km/h (1 Bft) S 180 0 min -0,5 C 1,7 C 4,2 km/h (1 Bft)
08.01.2016 07:50 3,3 C 21,4 C 2,4 C 2,6 C 1,1 C 0,0 C 76 % 82 % 0 % 1003,2 hPa 0,0 l/m 4,7 km/h (1 Bft) SO 135 0 min -0,5 C -0,2 C 6,0 km/h (2 Bft)
08.01.2016 07:55 3,2 C 21,4 C 2,3 C 2,5 C 1,0 C 0,0 C 75 % 82 % 0 % 1003,2 hPa 0,0 l/m 4,8 km/h (1 Bft) O 90 0 min -0,8 C -0,4 C 6,1 km/h (2 Bft)
08.01.2016 08:00 3,1 C 21,5 C 2,2 C 2,3 C 0,6 C 0,0 C 75 % 82 % 0 % 1003,2 hPa 0,0 l/m 5,8 km/h (2 Bft) S 180 0 min -0,9 C -1,3 C 6,9 km/h (2 Bft)
08.01.2016 08:05 3,1 C 21,5 C 2,1 C 2,2 C 0,3 C 0,0 C 75 % 83 % 0 % 1003,2 hPa 0,0 l/m 6,4 km/h (2 Bft) W 270 0 min -0,9 C -1,8 C 8,5 km/h (2 Bft)
08.01.2016 08:10 3,1 C 21,5 C 2,1 C 2,1 C 0,2 C 0,0 C 76 % 83 % 0 % 1003,4 hPa 0,0 l/m 6,9 km/h (2 Bft) W-SW 247 0 min -0,7 C -2,1 C 14,2 km/h (3 Bft)
08.01.2016 08:15 3,1 C 21,5 C 2,2 C 2,1 C 0,2 C 0,0 C 76 % 84 % 0 % 1003,4 hPa 0,0 l/m 7,2 km/h (2 Bft) W-SW 247 0 min -0,7 C -2,2 C 6,3 km/h (2 Bft)
08.01.2016 08:20 3,1 C 21,5 C 2,2 C 2,2 C 0,3 C 0,0 C 76 % 84 % 0 % 1003,4 hPa 0,0 l/m 6,6 km/h (2 Bft) SW 225 0 min -0,7 C -1,9 C 10,6 km/h (2 Bft)
08.01.2016 08:25 3,0 C 21,5 C 2,3 C 2,2 C 0,6 C 0,0 C 77 % 84 % 0 % 1003,4 hPa 0,0 l/m 6,0 km/h (2 Bft) SW 225 0 min -0,6 C -1,3 C 8,7 km/h (2 Bft)
08.01.2016 08:30 2,8 C 21,5 C 2,1 C 2,2 C 0,9 C 0,0 C 77 % 84 % 0 % 1003,7 hPa 0,0 l/m 5,1 km/h (1 Bft) W 270 0 min -0,8 C -0,6 C 4,5 km/h (1 Bft)
08.01.2016 08:35 2,8 C 21,5 C 2,1 C 2,2 C 0,9 C 0,0 C 77 % 84 % 0 % 1003,7 hPa 0,0 l/m 4,7 km/h (1 Bft) NW 315 0 min -0,8 C -0,4 C 3,9 km/h (1 Bft)
08.01.2016 08:40 2,9 C 21,5 C 2,0 C 2,3 C 1,1 C 0,0 C 77 % 84 % 0 % 1003,7 hPa 0,0 l/m 4,3 km/h (1 Bft) W-SW 247 0 min -0,7 C 1,1 C 6,6 km/h (2 Bft)
08.01.2016 08:45 2,8 C 21,4 C 2,1 C 2,3 C 1,3 C 0,0 C 77 % 84 % 0 % 1003,7 hPa 0,0 l/m 4,0 km/h (1 Bft) W 270 0 min -0,8 C 1,3 C 4,2 km/h (1 Bft)
08.01.2016 08:50 2,9 C 21,5 C 2,3 C 2,3 C 1,0 C 0,0 C 77 % 84 % 0 % 1003,7 hPa 0,0 l/m 5,0 km/h (1 Bft) SW 225 0 min -0,7 C -0,5 C 11,6 km/h (2 Bft)
08.01.2016 08:55 2,9 C 21,4 C 2,3 C 2,3 C 1,1 C 0,0 C 77 % 84 % 0 % 1003,7 hPa 0,0 l/m 5,0 km/h (1 Bft) SO 135 0 min -0,7 C -0,3 C 2,1 km/h (1 Bft)
08.01.2016 09:00 2,9 C 21,4 C 2,2 C 2,5 C 1,7 C 0,0 C 77 % 84 % 0 % 1003,7 hPa 0,0 l/m 3,9 km/h (1 Bft) W-NW 292 0 min -0,7 C 1,7 C 4,3 km/h (1 Bft)
08.01.2016 09:05 2,9 C 21,4 C 2,3 C 2,7 C 2,3 C 0,0 C 77 % 84 % 0 % 1003,7 hPa 0,0 l/m 2,7 km/h (1 Bft) O-NO 67 0 min -0,7 C 2,3 C 0,0 km/h (0 Bft)
08.01.2016 09:10 2,9 C 21,4 C 2,3 C 2,7 C 2,3 C 0,0 C 77 % 84 % 0 % 1004,4 hPa 0,0 l/m 3,2 km/h (1 Bft) W-SW 247 0 min -0,7 C 2,3 C 3,9 km/h (1 Bft)
08.01.2016 09:15 3,0 C 21,4 C 2,4 C 2,8 C 2,5 C 0,0 C 77 % 84 % 0 % 1004,4 hPa 0,0 l/m 3,4 km/h (1 Bft) S-SO 157 0 min -0,6 C 2,5 C 0,0 km/h (0 Bft)
08.01.2016 09:20 3,1 C 21,4 C 2,5 C 3,0 C 2,7 C 0,0 C 77 % 84 % 0 % 1004,4 hPa 0,0 l/m 3,5 km/h (1 Bft) W-SW 247 0 min -0,5 C 2,7 C 6,6 km/h (2 Bft)
08.01.2016 09:25 3,0 C 21,4 C 2,5 C 2,9 C 2,8 C 0,0 C 77 % 84 % 0 % 1004,4 hPa 0,0 l/m 3,2 km/h (1 Bft) S-SO 157 0 min -0,6 C 2,8 C 4,8 km/h (1 Bft)
08.01.2016 09:30 3,1 C 21,4 C 2,4 C 2,8 C 2,1 C 0,0 C 77 % 83 % 0 % 1004,2 hPa 0,0 l/m 4,3 km/h (1 Bft) W-SW 247 0 min -0,5 C 2,1 C 9,8 km/h (2 Bft)
08.01.2016 09:35 3,2 C 21,4 C 2,4 C 2,9 C 2,2 C 0,0 C 77 % 83 % 0 % 1004,2 hPa 0,0 l/m 4,2 km/h (1 Bft) W-SW 247 0 min -0,4 C 2,2 C 2,1 km/h (1 Bft)
08.01.2016 09:41 3,2 C 21,4 C 2,6 C 2,9 C 2,3 C 0,0 C 76 % 83 % 0 % 1004,2 hPa 0,0 l/m 4,0 km/h (1 Bft) N 0 0 min -0,6 C 2,3 C 3,9 km/h (1 Bft)
08.01.2016 09:50 3,5 C 21,5 C 2,5 C 3,3 C 2,8 C 0,0 C 76 % 83 % 0 % 1004,2 hPa 0,0 l/m 3,2 km/h (1 Bft) S-SW 202 0 min -0,3 C 2,8 C 0,0 km/h (0 Bft)
08.01.2016 09:55 3,5 C 21,5 C 2,4 C 3,3 C 3,0 C 0,0 C 76 % 83 % 0 % 1004,2 hPa 0,0 l/m 2,4 km/h (1 Bft) S 180 0 min -0,3 C 3,0 C 5,8 km/h (2 Bft)
08.01.2016 10:00 3,5 C 21,5 C 2,4 C 3,2 C 2,6 C 0,0 C 76 % 83 % 0 % 1004,2 hPa 0,0 l/m 3,7 km/h (1 Bft) W-SW 247 0 min -0,3 C 2,6 C 11,3 km/h (2 Bft)
08.01.2016 10:05 3,5 C 21,5 C 2,5 C 3,2 C 2,7 C 0,0 C 76 % 83 % 0 % 1004,2 hPa 0,0 l/m 3,9 km/h (1 Bft) S 180 0 min -0,3 C 2,7 C 7,6 km/h (2 Bft)
08.01.2016 10:10 3,7 C 21,5 C 2,8 C 3,3 C 2,4 C 0,0 C 76 % 83 % 0 % 1004,4 hPa 0,0 l/m 5,1 km/h (1 Bft) SW 225 0 min -0,1 C 1,1 C 10,6 km/h (2 Bft)
08.01.2016 10:15 3,9 C 21,5 C 2,8 C 3,3 C 2,2 C 0,0 C 75 % 83 % 0 % 1004,4 hPa 0,0 l/m 6,6 km/h (2 Bft) SW 225 0 min -0,1 C 0,3 C 5,8 km/h (2 Bft)
08.01.2016 10:20 3,9 C 21,5 C 3,0 C 3,4 C 2,3 C 0,0 C 75 % 82 % 0 % 1004,4 hPa 0,0 l/m 7,2 km/h (2 Bft) S 180 0 min -0,1 C 0,2 C 5,6 km/h (1 Bft)
08.01.2016 10:25 4,0 C 21,5 C 3,0 C 3,4 C 2,3 C 0,0 C 74 % 82 % 0 % 1004,4 hPa 0,0 l/m 7,7 km/h (2 Bft) W-SW 247 0 min -0,2 C 0,1 C 14,6 km/h (3 Bft)
08.01.2016 10:30 4,2 C 21,5 C 3,2 C 3,9 C 2,6 C 0,0 C 74 % 82 % 0 % 1004,5 hPa 0,0 l/m 8,5 km/h (2 Bft) S-SW 202 0 min -0,0 C 0,2 C 9,8 km/h (2 Bft)
08.01.2016 10:35 4,2 C 21,5 C 3,2 C 3,9 C 2,4 C 0,0 C 74 % 82 % 0 % 1004,5 hPa 0,0 l/m 8,7 km/h (2 Bft) W-SW 247 0 min -0,0 C -0,1 C 14,8 km/h (3 Bft)
08.01.2016 10:40 4,4 C 21,5 C 3,3 C 4,0 C 2,6 C 0,0 C 73 % 81 % 0 % 1004,5 hPa 0,0 l/m 7,9 km/h (2 Bft) W-SW 247 0 min -0,0 C 0,3 C 9,2 km/h (2 Bft)
08.01.2016 10:45 4,5 C 21,5 C 3,5 C 4,1 C 2,4 C 0,0 C 73 % 81 % 0 % 1004,5 hPa 0,0 l/m 8,5 km/h (2 Bft) S-SO 157 0 min 0,1 C -0,1 C 24,0 km/h (4 Bft)
08.01.2016 10:50 4,5 C 21,5 C 3,5 C 4,0 C 2,0 C 0,0 C 73 % 80 % 0 % 1004,4 hPa 0,0 l/m 10,3 km/h (2 Bft) SW 225 0 min 0,1 C -1,0 C 15,3 km/h (3 Bft)
08.01.2016 10:55 4,7 C 21,5 C 3,6 C 4,1 C 2,1 C 0,0 C 73 % 80 % 0 % 1004,4 hPa 0,0 l/m 11,1 km/h (2 Bft) SW 225 0 min 0,3 C -1,1 C 13,4 km/h (3 Bft)
08.01.2016 11:00 4,7 C 21,5 C 3,6 C 4,2 C 2,7 C 0,0 C 72 % 79 % 0 % 1004,4 hPa 0,0 l/m 10,6 km/h (2 Bft) W-SW 247 0 min 0,1 C -0,2 C 12,7 km/h (3 Bft)
08.01.2016 11:05 4,8 C 21,5 C 3,7 C 4,4 C 3,1 C 0,0 C 72 % 79 % 0 % 1004,4 hPa 0,0 l/m 10,3 km/h (2 Bft) S-SW 202 0 min 0,2 C 0,3 C 10,3 km/h (2 Bft)
08.01.2016 11:10 4,9 C 21,5 C 3,9 C 4,6 C 3,4 C 0,0 C 71 % 79 % 0 % 1005,1 hPa 0,0 l/m 10,9 km/h (2 Bft) S-SO 157 0 min 0,1 C 0,5 C 15,3 km/h (3 Bft)
08.01.2016 11:15 4,9 C 21,5 C 3,9 C 4,4 C 3,4 C 0,0 C 71 % 78 % 0 % 1005,1 hPa 0,0 l/m 11,4 km/h (2 Bft) W-SW 247 0 min 0,1 C 0,4 C 18,2 km/h (3 Bft)
08.01.2016 11:20 4,9 C 21,5 C 4,0 C 4,8 C 4,1 C 0,0 C 70 % 78 % 0 % 1005,1 hPa 0,0 l/m 11,6 km/h (2 Bft) SW 225 0 min -0,1 C 1,2 C 22,4 km/h (4 Bft)
08.01.2016 11:25 5,1 C 21,5 C 4,0 C 5,1 C 4,5 C 0,0 C 71 % 78 % 0 % 1005,1 hPa 0,0 l/m 11,6 km/h (2 Bft) SW 225 0 min 0,3 C 1,7 C 20,9 km/h (4 Bft)
08.01.2016 11:30 5,1 C 21,5 C 4,0 C 5,1 C 4,2 C 0,0 C 70 % 77 % 0 % 1004,5 hPa 0,0 l/m 12,6 km/h (3 Bft) S-SO 157 0 min 0,1 C 1,2 C 17,1 km/h (3 Bft)
08.01.2016 11:35 5,1 C 21,5 C 4,0 C 5,0 C 3,9 C 0,0 C 70 % 77 % 0 % 1004,5 hPa 0,0 l/m 11,6 km/h (2 Bft) W 270 0 min 0,1 C 1,0 C 10,8 km/h (2 Bft)
08.01.2016 11:40 5,1 C 21,5 C 4,1 C 4,7 C 3,9 C 0,0 C 70 % 77 % 0 % 1004,5 hPa 0,0 l/m 11,1 km/h (2 Bft) SW 225 0 min 0,1 C 1,1 C 18,8 km/h (3 Bft)
08.01.2016 11:45 5,2 C 21,5 C 4,3 C 5,1 C 4,1 C 0,0 C 70 % 77 % 0 % 1004,5 hPa 0,0 l/m 11,3 km/h (2 Bft) SW 225 0 min 0,2 C 1,3 C 14,8 km/h (3 Bft)
08.01.2016 11:50 5,2 C 21,6 C 4,3 C 5,1 C 4,0 C 0,0 C 69 % 76 % 0 % 1005,3 hPa 0,0 l/m 12,2 km/h (2 Bft) S-SW 202 0 min -0,0 C 1,0 C 21,9 km/h (4 Bft)
08.01.2016 11:55 5,2 C 21,6 C 4,3 C 5,1 C 4,2 C 0,0 C 69 % 76 % 0 % 1005,3 hPa 0,0 l/m 12,9 km/h (3 Bft) SW 225 0 min -0,0 C 1,1 C 15,0 km/h (3 Bft)
08.01.2016 12:00 5,3 C 21,6 C 4,3 C 5,2 C 4,1 C 0,0 C 69 % 76 % 0 % 1005,3 hPa 0,0 l/m 12,4 km/h (3 Bft) S-SW 202 0 min 0,1 C 1,1 C 13,2 km/h (3 Bft)
08.01.2016 12:05 5,3 C 21,6 C 4,3 C 4,9 C 4,1 C 0,0 C 69 % 76 % 0 % 1005,3 hPa 0,0 l/m 12,1 km/h (2 Bft) W 270 0 min 0,1 C 1,1 C 20,1 km/h (4 Bft)
08.01.2016 12:10 5,4 C 21,6 C 4,4 C 5,1 C 3,6 C 0,0 C 69 % 76 % 0 % 1004,4 hPa 0,0 l/m 12,6 km/h (3 Bft) W 270 0 min 0,2 C 0,4 C 13,5 km/h (3 Bft)
08.01.2016 12:15 5,5 C 21,6 C 4,5 C 5,1 C 3,5 C 0,0 C 69 % 76 % 0 % 1004,4 hPa 0,0 l/m 12,4 km/h (3 Bft) SW 225 0 min 0,3 C 0,4 C 10,3 km/h (2 Bft)
08.01.2016 12:20 5,5 C 21,6 C 4,5 C 5,1 C 3,6 C 0,0 C 68 % 75 % 0 % 1004,4 hPa 0,0 l/m 12,9 km/h (3 Bft) SW 225 0 min 0,1 C 0,4 C 19,5 km/h (3 Bft)
08.01.2016 12:25 5,5 C 21,6 C 4,7 C 4,9 C 3,6 C 0,0 C 69 % 75 % 0 % 1004,4 hPa 0,0 l/m 12,6 km/h (3 Bft) S 180 0 min 0,3 C 0,4 C 10,9 km/h (2 Bft)
08.01.2016 12:30 5,6 C 21,6 C 4,6 C 4,9 C 3,6 C 0,0 C 68 % 75 % 0 % 1004,4 hPa 0,0 l/m 12,6 km/h (3 Bft) SW 225 0 min 0,2 C 0,4 C 16,1 km/h (3 Bft)
08.01.2016 12:35 5,6 C 21,6 C 4,7 C 5,3 C 3,8 C 0,0 C 68 % 75 % 0 % 1004,4 hPa 0,0 l/m 12,1 km/h (2 Bft) SW 225 0 min 0,2 C 0,8 C 13,7 km/h (3 Bft)
08.01.2016 12:41 5,6 C 21,6 C 4,8 C 5,3 C 3,7 C 0,0 C 68 % 75 % 0 % 1004,4 hPa 0,0 l/m 12,4 km/h (3 Bft) N 0 0 min 0,2 C 0,6 C 14,2 km/h (3 Bft)
08.01.2016 12:50 5,7 C 21,6 C 4,9 C 5,0 C 3,7 C 0,0 C 67 % 74 % 0 % 1004,4 hPa 0,0 l/m 13,0 km/h (3 Bft) W-SW 247 0 min 0,1 C 0,5 C 14,6 km/h (3 Bft)
08.01.2016 12:55 5,7 C 21,6 C 4,8 C 5,5 C 4,4 C 0,0 C 67 % 73 % 0 % 1004,4 hPa 0,0 l/m 12,9 km/h (3 Bft) SW 225 0 min 0,1 C 1,4 C 19,0 km/h (3 Bft)
08.01.2016 13:00 5,8 C 21,6 C 4,8 C 5,3 C 4,4 C 0,0 C 67 % 74 % 0 % 1004,4 hPa 0,0 l/m 11,7 km/h (2 Bft) S 180 0 min 0,2 C 1,6 C 22,0 km/h (4 Bft)
08.01.2016 13:05 5,9 C 21,6 C 4,9 C 5,4 C 4,4 C 0,0 C 66 % 73 % 0 % 1004,4 hPa 0,0 l/m 11,6 km/h (2 Bft) SW 225 0 min 0,0 C 1,6 C 17,1 km/h (3 Bft)
08.01.2016 13:10 5,9 C 21,6 C 4,9 C 5,6 C 4,3 C 0,0 C 66 % 73 % 0 % 1004,7 hPa 0,0 l/m 11,4 km/h (2 Bft) W-SW 247 0 min 0,0 C 1,5 C 16,1 km/h (3 Bft)
08.01.2016 13:15 5,8 C 21,6 C 4,9 C 5,6 C 4,4 C 0,0 C 67 % 73 % 0 % 1004,7 hPa 0,0 l/m 11,3 km/h (2 Bft) S-SW 202 0 min 0,2 C 1,7 C 17,7 km/h (3 Bft)
08.01.2016 13:20 5,9 C 21,6 C 5,1 C 5,7 C 4,8 C 0,0 C 67 % 74 % 0 % 1004,7 hPa 0,0 l/m 11,1 km/h (2 Bft) S-SW 202 0 min 0,3 C 2,2 C 14,0 km/h (3 Bft)
08.01.2016 13:25 5,9 C 21,6 C 5,0 C 5,9 C 5,2 C 0,0 C 66 % 73 % 0 % 1004,7 hPa 0,0 l/m 10,9 km/h (2 Bft) SW 225 0 min 0,0 C 2,7 C 11,7 km/h (2 Bft)
08.01.2016 13:30 5,9 C 21,6 C 5,0 C 6,1 C 5,6 C 0,2 C 66 % 73 % 5 % 1004,2 hPa 0,0 l/m 10,8 km/h (2 Bft) SW 225 0 min 0,0 C 3,2 C 12,4 km/h (3 Bft)
08.01.2016 13:35 6,0 C 21,6 C 5,1 C 6,3 C 5,7 C 0,3 C 67 % 73 % 8 % 1004,2 hPa 0,0 l/m 10,8 km/h (2 Bft) SW 225 0 min 0,3 C 3,3 C 15,9 km/h (3 Bft)
08.01.2016 13:40 6,0 C 21,6 C 5,1 C 6,8 C 6,5 C 0,8 C 67 % 73 % 21 % 1004,2 hPa 0,0 l/m 9,5 km/h (2 Bft) SW 225 0 min 0,3 C 4,6 C 7,7 km/h (2 Bft)
08.01.2016 13:45 6,0 C 21,6 C 5,2 C 7,1 C 6,6 C 1,1 C 66 % 73 % 29 % 1004,2 hPa 0,0 l/m 9,8 km/h (2 Bft) W-SW 247 0 min 0,1 C 4,6 C 8,9 km/h (2 Bft)
08.01.2016 13:50 6,1 C 21,7 C 5,3 C 7,1 C 6,4 C 1,0 C 65 % 72 % 26 % 1004,4 hPa 0,0 l/m 10,9 km/h (2 Bft) S-SW 202 0 min 0,0 C 4,2 C 11,7 km/h (2 Bft)
08.01.2016 13:55 6,1 C 21,7 C 5,2 C 7,3 C 6,8 C 1,2 C 65 % 72 % 32 % 1004,4 hPa 0,0 l/m 11,1 km/h (2 Bft) SW 225 0 min 0,0 C 4,6 C 9,7 km/h (2 Bft)
08.01.2016 14:00 6,1 C 21,7 C 5,3 C 7,6 C 7,0 C 1,5 C 64 % 72 % 39 % 1004,4 hPa 0,0 l/m 11,6 km/h (2 Bft) SW 225 0 min -0,2 C 4,7 C 18,2 km/h (3 Bft)
08.01.2016 14:05 6,2 C 21,7 C 5,3 C 7,7 C 7,1 C 1,5 C 65 % 72 % 39 % 1004,4 hPa 0,0 l/m 10,9 km/h (2 Bft) W 270 0 min 0,1 C 5,0 C 15,6 km/h (3 Bft)
08.01.2016 14:10 6,3 C 21,7 C 5,5 C 7,9 C 7,4 C 1,6 C 64 % 71 % 42 % 1004,1 hPa 0,0 l/m 10,9 km/h (2 Bft) W-SW 247 0 min 0,0 C 5,4 C 13,2 km/h (3 Bft)
08.01.2016 14:15 6,3 C 21,7 C 5,5 C 7,9 C 7,3 C 1,6 C 63 % 71 % 42 % 1004,1 hPa 0,0 l/m 11,7 km/h (2 Bft) SW 225 0 min -0,2 C 5,1 C 19,3 km/h (3 Bft)
08.01.2016 14:20 6,4 C 21,7 C 5,5 C 7,8 C 7,2 C 1,4 C 63 % 70 % 37 % 1004,1 hPa 0,0 l/m 11,4 km/h (2 Bft) W-SW 247 0 min -0,1 C 5,0 C 13,0 km/h (3 Bft)
08.01.2016 14:25 6,4 C 21,7 C 5,4 C 7,9 C 7,4 C 1,5 C 64 % 71 % 39 % 1004,1 hPa 0,0 l/m 10,9 km/h (2 Bft) SW 225 0 min 0,1 C 5,4 C 18,5 km/h (3 Bft)
08.01.2016 14:30 6,3 C 21,7 C 5,2 C 7,8 C 7,1 C 1,5 C 64 % 71 % 39 % 1004,2 hPa 0,0 l/m 10,3 km/h (2 Bft) SW 225 0 min 0,0 C 5,1 C 14,3 km/h (3 Bft)
08.01.2016 14:35 6,3 C 21,7 C 5,2 C 7,1 C 7,1 C 0,8 C 64 % 71 % 21 % 1004,2 hPa 0,0 l/m 10,3 km/h (2 Bft) S 180 0 min 0,0 C 5,1 C 6,4 km/h (2 Bft)
08.01.2016 14:40 6,1 C 21,7 C 5,2 C 7,5 C 6,9 C 1,4 C 64 % 71 % 37 % 1004,2 hPa 0,0 l/m 10,1 km/h (2 Bft) S-SW 202 0 min -0,2 C 4,9 C 14,0 km/h (3 Bft)
08.01.2016 14:45 6,1 C 21,7 C 5,1 C 7,5 C 7,0 C 1,4 C 64 % 71 % 37 % 1004,2 hPa 0,0 l/m 9,8 km/h (2 Bft) W-SW 247 0 min -0,2 C 5,1 C 8,5 km/h (2 Bft)
08.01.2016 14:50 6,1 C 21,9 C 5,0 C 7,4 C 6,9 C 1,3 C 64 % 71 % 34 % 1004,2 hPa 0,0 l/m 9,3 km/h (2 Bft) NW 315 0 min -0,2 C 5,1 C 8,9 km/h (2 Bft)
08.01.2016 14:55 6,0 C 21,9 C 5,1 C 6,9 C 6,9 C 0,9 C 64 % 71 % 24 % 1004,2 hPa 0,0 l/m 9,7 km/h (2 Bft) SW 225 0 min -0,3 C 5,0 C 12,6 km/h (3 Bft)
08.01.2016 15:00 6,0 C 21,9 C 5,0 C 7,2 C 6,4 C 1,2 C 63 % 71 % 32 % 1004,2 hPa 0,0 l/m 10,8 km/h (2 Bft) SW 225 0 min -0,5 C 4,2 C 18,5 km/h (3 Bft)
08.01.2016 15:05 6,0 C 21,9 C 4,9 C 6,8 C 6,0 C 0,8 C 63 % 71 % 21 % 1004,2 hPa 0,0 l/m 10,5 km/h (2 Bft) SW 225 0 min -0,5 C 3,8 C 6,8 km/h (2 Bft)
08.01.2016 15:10 5,9 C 21,9 C 4,8 C 6,2 C 5,5 C 0,3 C 64 % 72 % 8 % 1004,6 hPa 0,0 l/m 7,9 km/h (2 Bft) O 90 0 min -0,4 C 3,7 C 4,0 km/h (1 Bft)
08.01.2016 15:15 5,8 C 21,9 C 4,8 C 5,5 C 5,0 C 0,0 C 65 % 72 % 0 % 1004,6 hPa 0,0 l/m 6,9 km/h (2 Bft) W 270 0 min -0,3 C 3,4 C 20,6 km/h (4 Bft)
08.01.2016 15:20 5,9 C 21,9 C 4,8 C 5,6 C 4,2 C 0,0 C 65 % 72 % 0 % 1004,6 hPa 0,0 l/m 7,9 km/h (2 Bft) W 270 0 min -0,2 C 2,2 C 12,6 km/h (3 Bft)
08.01.2016 15:25 5,9 C 21,9 C 4,7 C 5,4 C 3,6 C 0,0 C 65 % 72 % 0 % 1004,6 hPa 0,0 l/m 10,0 km/h (2 Bft) W-SW 247 0 min -0,2 C 1,0 C 16,6 km/h (3 Bft)
08.01.2016 15:30 5,7 C 21,9 C 4,7 C 5,1 C 3,0 C 0,0 C 64 % 72 % 0 % 1004,2 hPa 0,0 l/m 11,3 km/h (2 Bft) S-SO 157 0 min -0,6 C -0,0 C 12,4 km/h (3 Bft)
08.01.2016 15:35 5,6 C 21,9 C 4,7 C 5,0 C 2,9 C 0,0 C 64 % 72 % 0 % 1004,2 hPa 0,0 l/m 11,7 km/h (2 Bft) W-SW 247 0 min -0,7 C -0,2 C 10,8 km/h (2 Bft)
08.01.2016 15:41 5,7 C 21,9 C 4,7 C 4,8 C 2,9 C 0,0 C 64 % 72 % 0 % 1004,2 hPa 0,0 l/m 10,9 km/h (2 Bft) N 0 0 min -0,6 C -0,1 C 12,9 km/h (3 Bft)
08.01.2016 15:50 5,5 C 21,9 C 4,5 C 4,9 C 3,0 C 0,0 C 64 % 72 % 0 % 1004,2 hPa 0,0 l/m 9,7 km/h (2 Bft) SW 225 0 min -0,8 C 0,3 C 13,0 km/h (3 Bft)
08.01.2016 15:55 5,5 C 21,9 C 4,3 C 4,7 C 3,0 C 0,0 C 64 % 72 % 0 % 1004,2 hPa 0,0 l/m 9,0 km/h (2 Bft) SW 225 0 min -0,8 C 0,5 C 8,2 km/h (2 Bft)
08.01.2016 16:00 5,5 C 21,9 C 4,2 C 4,9 C 2,8 C 0,0 C 65 % 72 % 0 % 1004,2 hPa 0,0 l/m 8,7 km/h (2 Bft) S 180 0 min -0,5 C 0,4 C 11,4 km/h (2 Bft)
08.01.2016 16:05 5,3 C 21,9 C 4,1 C 4,5 C 2,8 C 0,0 C 65 % 72 % 0 % 1004,2 hPa 0,0 l/m 7,9 km/h (2 Bft) W-SW 247 0 min -0,7 C 0,6 C 10,1 km/h (2 Bft)
08.01.2016 16:10 5,2 C 21,9 C 4,0 C 4,6 C 2,5 C 0,0 C 65 % 73 % 0 % 1005,1 hPa 0,0 l/m 8,2 km/h (2 Bft) W-SW 247 0 min -0,8 C 0,1 C 4,5 km/h (1 Bft)
08.01.2016 16:15 5,2 C 21,9 C 3,9 C 4,5 C 2,4 C 0,0 C 65 % 73 % 0 % 1005,1 hPa 0,0 l/m 8,0 km/h (2 Bft) SW 225 0 min -0,8 C 0,1 C 7,7 km/h (2 Bft)
08.01.2016 16:20 5,0 C 21,9 C 3,9 C 4,1 C 2,4 C 0,0 C 65 % 73 % 0 % 1005,1 hPa 0,0 l/m 7,2 km/h (2 Bft) W-SW 247 0 min -1,0 C 0,3 C 7,7 km/h (2 Bft)
08.01.2016 16:25 4,9 C 22,0 C 3,6 C 4,0 C 2,2 C 0,0 C 66 % 74 % 0 % 1005,1 hPa 0,0 l/m 7,4 km/h (2 Bft) W-SW 247 0 min -0,9 C 0,0 C 13,5 km/h (3 Bft)
08.01.2016 16:30 4,8 C 22,0 C 3,5 C 3,9 C 2,0 C 0,0 C 67 % 74 % 0 % 1004,4 hPa 0,0 l/m 7,2 km/h (2 Bft) S 180 0 min -0,8 C -0,1 C 10,1 km/h (2 Bft)
08.01.2016 16:35 4,8 C 22,0 C 3,4 C 3,9 C 2,1 C 0,0 C 67 % 74 % 0 % 1004,4 hPa 0,0 l/m 6,8 km/h (2 Bft) W-SW 247 0 min -0,8 C 0,1 C 10,9 km/h (2 Bft)
08.01.2016 16:40 4,7 C 22,0 C 3,3 C 3,8 C 1,9 C 0,0 C 67 % 75 % 0 % 1004,4 hPa 0,0 l/m 6,6 km/h (2 Bft) W-NW 292 0 min -0,9 C -0,1 C 5,5 km/h (1 Bft)
08.01.2016 16:45 4,7 C 22,0 C 3,2 C 3,7 C 1,8 C 0,0 C 68 % 75 % 0 % 1004,4 hPa 0,0 l/m 6,6 km/h (2 Bft) N-NW 337 0 min -0,7 C -0,2 C 6,1 km/h (2 Bft)
08.01.2016 16:50 4,5 C 22,0 C 3,2 C 3,5 C 1,5 C 0,0 C 68 % 75 % 0 % 1004,8 hPa 0,0 l/m 7,1 km/h (2 Bft) S 180 0 min -0,9 C -0,7 C 9,7 km/h (2 Bft)
08.01.2016 16:55 4,5 C 22,0 C 3,2 C 3,5 C 1,4 C 0,0 C 68 % 76 % 0 % 1004,8 hPa 0,0 l/m 7,4 km/h (2 Bft) W 270 0 min -0,9 C -0,9 C 5,8 km/h (2 Bft)
08.01.2016 17:00 4,4 C 22,0 C 3,1 C 3,4 C 1,3 C 0,0 C 69 % 76 % 0 % 1004,8 hPa 0,0 l/m 7,6 km/h (2 Bft) S 180 0 min -0,8 C -1,1 C 8,2 km/h (2 Bft)
08.01.2016 17:05 4,5 C 22,0 C 3,1 C 3,5 C 1,4 C 0,0 C 69 % 77 % 0 % 1004,8 hPa 0,0 l/m 7,4 km/h (2 Bft) SW 225 0 min -0,7 C -0,9 C 12,9 km/h (3 Bft)
08.01.2016 17:10 4,4 C 22,0 C 2,9 C 3,4 C 1,4 C 0,0 C 70 % 77 % 0 % 1005,2 hPa 0,0 l/m 7,1 km/h (2 Bft) W-SW 247 0 min -0,6 C -0,8 C 6,4 km/h (2 Bft)
08.01.2016 17:15 4,2 C 22,0 C 2,8 C 3,2 C 1,3 C 0,0 C 70 % 77 % 0 % 1005,2 hPa 0,0 l/m 6,9 km/h (2 Bft) S-SW 202 0 min -0,8 C -0,9 C 6,6 km/h (2 Bft)
08.01.2016 17:20 4,1 C 22,0 C 2,7 C 3,1 C 1,2 C 0,0 C 70 % 78 % 0 % 1005,2 hPa 0,0 l/m 6,6 km/h (2 Bft) S-SW 202 0 min -0,9 C -0,9 C 9,5 km/h (2 Bft)
08.01.2016 17:25 4,0 C 22,0 C 2,7 C 3,1 C 1,2 C 0,0 C 70 % 78 % 0 % 1005,2 hPa 0,0 l/m 6,1 km/h (2 Bft) SW 225 0 min -1,0 C -0,7 C 5,1 km/h (1 Bft)
08.01.2016 17:30 4,0 C 22,0 C 2,7 C 3,1 C 1,2 C 0,0 C 71 % 78 % 0 % 1005,6 hPa 0,0 l/m 6,0 km/h (2 Bft) W-SW 247 0 min -0,8 C -0,6 C 6,9 km/h (2 Bft)
08.01.2016 17:35 4,0 C 22,0 C 2,5 C 3,0 C 1,1 C 0,0 C 72 % 78 % 0 % 1005,6 hPa 0,0 l/m 6,0 km/h (2 Bft) SW 225 0 min -0,6 C -0,8 C 8,7 km/h (2 Bft)
08.01.2016 17:40 3,9 C 22,0 C 2,5 C 3,1 C 1,4 C 0,0 C 72 % 79 % 0 % 1005,6 hPa 0,0 l/m 4,8 km/h (1 Bft) S-SO 157 0 min -0,7 C 0,1 C 5,3 km/h (1 Bft)
08.01.2016 17:45 3,9 C 22,0 C 2,5 C 3,2 C 1,8 C 0,0 C 72 % 79 % 0 % 1005,6 hPa 0,0 l/m 4,0 km/h (1 Bft) W 270 0 min -0,7 C 1,8 C 6,9 km/h (2 Bft)
08.01.2016 17:50 3,9 C 22,0 C 2,5 C 3,2 C 1,9 C 0,0 C 72 % 79 % 0 % 1005,8 hPa 0,0 l/m 4,0 km/h (1 Bft) W-SW 247 0 min -0,7 C 1,9 C 3,2 km/h (1 Bft)
08.01.2016 17:55 3,8 C 22,0 C 2,4 C 3,1 C 1,8 C 0,0 C 72 % 79 % 0 % 1005,8 hPa 0,0 l/m 3,9 km/h (1 Bft) SW 225 0 min -0,8 C 1,8 C 5,3 km/h (1 Bft)
08.01.2016 18:00 3,7 C 22,0 C 2,4 C 3,1 C 1,8 C 0,0 C 73 % 80 % 0 % 1005,8 hPa 0,0 l/m 3,7 km/h (1 Bft) S 180 0 min -0,7 C 1,8 C 12,1 km/h (2 Bft)
08.01.2016 18:05 3,8 C 22,0 C 2,7 C 3,1 C 1,7 C 0,0 C 73 % 80 % 0 % 1005,8 hPa 0,0 l/m 4,0 km/h (1 Bft) O-SO 112 0 min -0,6 C 1,7 C 7,4 km/h (2 Bft)
08.01.2016 18:10 3,8 C 22,0 C 2,7 C 3,1 C 1,8 C 0,0 C 73 % 80 % 0 % 1005,8 hPa 0,0 l/m 3,5 km/h (1 Bft) W-NW 292 0 min -0,6 C 1,8 C 4,2 km/h (1 Bft)
08.01.2016 18:15 3,7 C 22,0 C 2,5 C 3,2 C 2,1 C 0,0 C 73 % 80 % 0 % 1005,8 hPa 0,0 l/m 2,9 km/h (1 Bft) SO 135 0 min -0,7 C 2,1 C 2,4 km/h (1 Bft)
08.01.2016 18:20 3,6 C 22,0 C 2,4 C 3,0 C 1,9 C 0,0 C 73 % 80 % 0 % 1005,8 hPa 0,0 l/m 3,2 km/h (1 Bft) S-SO 157 0 min -0,8 C 1,9 C 4,3 km/h (1 Bft)
08.01.2016 18:25 3,7 C 22,0 C 2,3 C 3,0 C 1,6 C 0,0 C 74 % 80 % 0 % 1005,8 hPa 0,0 l/m 3,7 km/h (1 Bft) W-SW 247 0 min -0,5 C 1,6 C 4,2 km/h (1 Bft)
08.01.2016 18:30 3,6 C 22,0 C 2,4 C 2,9 C 1,4 C 0,0 C 74 % 81 % 0 % 1006,5 hPa 0,0 l/m 4,2 km/h (1 Bft) W-SW 247 0 min -0,6 C 1,4 C 4,8 km/h (1 Bft)
08.01.2016 18:35 3,6 C 22,0 C 2,4 C 2,9 C 1,6 C 0,0 C 74 % 81 % 0 % 1006,5 hPa 0,0 l/m 3,9 km/h (1 Bft) S-SO 157 0 min -0,6 C 1,6 C 7,9 km/h (2 Bft)
08.01.2016 18:41 3,5 C 22,0 C 2,4 C 2,9 C 1,7 C 0,0 C 74 % 81 % 0 % 1006,5 hPa 0,0 l/m 3,5 km/h (1 Bft) N 0 0 min -0,7 C 1,7 C 1,6 km/h (1 Bft)
08.01.2016 18:50 3,3 C 22,0 C 2,2 C 2,6 C 1,2 C 0,0 C 74 % 81 % 0 % 1006,4 hPa 0,0 l/m 3,9 km/h (1 Bft) W-SW 247 0 min -0,9 C 1,2 C 13,0 km/h (3 Bft)
08.01.2016 18:55 3,2 C 22,0 C 2,3 C 2,4 C 0,9 C 0,0 C 75 % 81 % 0 % 1006,4 hPa 0,0 l/m 4,8 km/h (1 Bft) SW 225 0 min -0,8 C -0,5 C 2,4 km/h (1 Bft)
08.01.2016 19:00 3,3 C 22,0 C 2,3 C 2,5 C 0,9 C 0,0 C 75 % 81 % 0 % 1006,4 hPa 0,0 l/m 4,8 km/h (1 Bft) NW 315 0 min -0,7 C -0,5 C 6,9 km/h (2 Bft)
08.01.2016 19:05 3,2 C 22,0 C 2,3 C 2,6 C 1,4 C 0,0 C 75 % 81 % 0 % 1006,4 hPa 0,0 l/m 3,7 km/h (1 Bft) W 270 0 min -0,8 C 1,4 C 10,1 km/h (2 Bft)
08.01.2016 19:10 3,2 C 22,0 C 2,3 C 2,5 C 1,2 C 0,0 C 75 % 82 % 0 % 1006,6 hPa 0,0 l/m 3,9 km/h (1 Bft) W-SW 247 0 min -0,8 C 1,2 C 5,8 km/h (2 Bft)
08.01.2016 19:15 3,2 C 22,0 C 2,3 C 2,5 C 1,1 C 0,0 C 75 % 82 % 0 % 1006,6 hPa 0,0 l/m 4,2 km/h (1 Bft) O-NO 67 0 min -0,8 C 1,1 C 5,3 km/h (1 Bft)
08.01.2016 19:20 3,1 C 22,0 C 2,2 C 2,4 C 1,1 C 0,0 C 75 % 82 % 0 % 1006,6 hPa 0,0 l/m 3,9 km/h (1 Bft) NW 315 0 min -0,9 C 1,1 C 3,5 km/h (1 Bft)
08.01.2016 19:25 3,1 C 22,0 C 2,1 C 2,5 C 1,3 C 0,0 C 75 % 82 % 0 % 1006,6 hPa 0,0 l/m 3,2 km/h (1 Bft) S-SW 202 0 min -0,9 C 1,3 C 6,1 km/h (2 Bft)
08.01.2016 19:30 3,0 C 22,0 C 2,0 C 2,5 C 1,6 C 0,0 C 75 % 82 % 0 % 1007,4 hPa 0,0 l/m 2,7 km/h (1 Bft) N-NW 337 0 min -1,0 C 1,6 C 3,4 km/h (1 Bft)
08.01.2016 19:35 2,9 C 22,1 C 2,0 C 2,4 C 1,3 C 0,0 C 75 % 82 % 0 % 1007,4 hPa 0,0 l/m 3,2 km/h (1 Bft) S-SW 202 0 min -1,1 C 1,3 C 5,0 km/h (1 Bft)
08.01.2016 19:40 2,9 C 22,1 C 2,0 C 2,4 C 1,5 C 0,0 C 75 % 82 % 0 % 1007,4 hPa 0,0 l/m 2,9 km/h (1 Bft) W 270 0 min -1,1 C 1,5 C 3,4 km/h (1 Bft)
08.01.2016 19:45 2,8 C 22,1 C 2,0 C 2,3 C 1,4 C 0,0 C 75 % 82 % 0 % 1007,4 hPa 0,0 l/m 2,7 km/h (1 Bft) S-SO 157 0 min -1,2 C 1,4 C 4,3 km/h (1 Bft)
08.01.2016 19:50 2,9 C 22,1 C 2,0 C 2,4 C 1,4 C 0,0 C 75 % 82 % 0 % 1007,0 hPa 0,0 l/m 2,6 km/h (1 Bft) SO 135 0 min -1,1 C 1,4 C 4,5 km/h (1 Bft)
08.01.2016 19:55 2,8 C 22,1 C 2,0 C 2,2 C 1,1 C 0,0 C 75 % 82 % 0 % 1007,0 hPa 0,0 l/m 3,2 km/h (1 Bft) W-SW 247 0 min -1,2 C 1,1 C 4,0 km/h (1 Bft)
08.01.2016 20:00 2,8 C 22,1 C 1,9 C 2,2 C 1,0 C 0,0 C 75 % 82 % 0 % 1007,0 hPa 0,0 l/m 3,5 km/h (1 Bft) N-NW 337 0 min -1,2 C 1,0 C 4,8 km/h (1 Bft)
08.01.2016 20:05 2,8 C 22,1 C 1,9 C 2,1 C 0,7 C 0,0 C 75 % 82 % 0 % 1007,0 hPa 0,0 l/m 4,0 km/h (1 Bft) SW 225 0 min -1,2 C 0,7 C 3,9 km/h (1 Bft)
08.01.2016 20:10 2,8 C 22,1 C 1,7 C 2,1 C 0,6 C 0,0 C 75 % 82 % 0 % 1006,9 hPa 0,0 l/m 4,3 km/h (1 Bft) S-SW 202 0 min -1,2 C 0,6 C 2,9 km/h (1 Bft)
08.01.2016 20:15 2,7 C 22,1 C 1,7 C 2,0 C 0,6 C 0,0 C 75 % 82 % 0 % 1006,9 hPa 0,0 l/m 4,0 km/h (1 Bft) S 180 0 min -1,3 C 0,6 C 1,6 km/h (1 Bft)
08.01.2016 20:20 2,7 C 22,1 C 1,6 C 2,1 C 0,9 C 0,0 C 75 % 82 % 0 % 1006,9 hPa 0,0 l/m 3,2 km/h (1 Bft) O 90 0 min -1,3 C 0,9 C 4,5 km/h (1 Bft)
08.01.2016 20:25 2,6 C 22,1 C 1,5 C 2,2 C 1,3 C 0,0 C 75 % 82 % 0 % 1006,9 hPa 0,0 l/m 2,4 km/h (1 Bft) NW 315 0 min -1,4 C 1,3 C 0,0 km/h (0 Bft)
08.01.2016 20:30 2,5 C 22,2 C 1,3 C 2,0 C 1,1 C 0,0 C 75 % 82 % 0 % 1007,3 hPa 0,0 l/m 1,6 km/h (1 Bft) SW 225 0 min -1,5 C 1,1 C 2,1 km/h (1 Bft)
08.01.2016 20:35 2,4 C 22,1 C 1,3 C 1,9 C 0,9 C 0,0 C 75 % 83 % 0 % 1007,3 hPa 0,0 l/m 1,6 km/h (1 Bft) W 270 0 min -1,6 C 0,9 C 2,1 km/h (1 Bft)
08.01.2016 20:40 2,4 C 22,1 C 1,2 C 1,9 C 0,9 C 0,0 C 76 % 83 % 0 % 1007,3 hPa 0,0 l/m 2,3 km/h (1 Bft) NW 315 0 min -1,4 C 0,9 C 2,1 km/h (1 Bft)
08.01.2016 20:45 2,4 C 22,1 C 1,3 C 1,9 C 0,9 C 0,0 C 76 % 83 % 0 % 1007,3 hPa 0,0 l/m 1,9 km/h (1 Bft) NW 315 0 min -1,4 C 0,9 C 0,0 km/h (0 Bft)
08.01.2016 20:50 2,3 C 22,1 C 1,1 C 1,8 C 0,8 C 0,0 C 76 % 83 % 0 % 1007,3 hPa 0,0 l/m 1,1 km/h (1 Bft) N 360 0 min -1,5 C 0,8 C 0,0 km/h (0 Bft)
08.01.2016 20:55 2,3 C 22,1 C 0,9 C 1,8 C 0,7 C 0,0 C 76 % 83 % 0 % 1007,3 hPa 0,0 l/m 1,3 km/h (1 Bft) W-SW 247 0 min -1,5 C 0,7 C 3,2 km/h (1 Bft)
08.01.2016 21:00 2,1 C 22,1 C 0,9 C 1,6 C 0,6 C 0,0 C 76 % 83 % 0 % 1007,3 hPa 0,0 l/m 1,1 km/h (1 Bft) W 270 0 min -1,7 C 0,6 C 0,0 km/h (0 Bft)
08.01.2016 21:05 2,0 C 22,1 C 0,9 C 1,5 C 0,5 C 0,0 C 76 % 84 % 0 % 1007,3 hPa 0,0 l/m 1,6 km/h (1 Bft) SW 225 0 min -1,8 C 0,5 C 4,8 km/h (1 Bft)
08.01.2016 21:10 2,0 C 22,1 C 0,7 C 1,4 C 0,3 C 0,0 C 76 % 84 % 0 % 1007,6 hPa 0,0 l/m 2,6 km/h (1 Bft) SW 225 0 min -1,8 C 0,3 C 5,0 km/h (1 Bft)
08.01.2016 21:15 1,9 C 22,1 C 0,7 C 1,3 C 0,1 C 0,0 C 77 % 84 % 0 % 1007,6 hPa 0,0 l/m 2,9 km/h (1 Bft) W 270 0 min -1,7 C 0,1 C 2,9 km/h (1 Bft)
08.01.2016 21:20 1,9 C 22,1 C 0,7 C 1,2 C -0,1 C 0,0 C 77 % 85 % 0 % 1007,6 hPa 0,0 l/m 3,2 km/h (1 Bft) S-SO 157 0 min -1,7 C -0,1 C 5,6 km/h (1 Bft)
08.01.2016 21:25 1,7 C 22,1 C 0,7 C 1,2 C 0,3 C 0,0 C 77 % 85 % 0 % 1007,6 hPa 0,0 l/m 2,7 km/h (1 Bft) SO 135 0 min -1,9 C 0,3 C 0,0 km/h (0 Bft)
08.01.2016 21:30 1,6 C 22,1 C 0,5 C 1,2 C 0,3 C 0,0 C 77 % 85 % 0 % 1007,7 hPa 0,0 l/m 1,8 km/h (1 Bft) W-NW 292 0 min -2,0 C 0,3 C 0,0 km/h (0 Bft)
08.01.2016 21:35 1,6 C 22,1 C 0,5 C 1,1 C 0,2 C 0,0 C 77 % 85 % 0 % 1007,7 hPa 0,0 l/m 1,3 km/h (1 Bft) S-SO 157 0 min -2,0 C 0,2 C 2,6 km/h (1 Bft)
08.01.2016 21:41 1,4 C 22,1 C 0,6 C 1,0 C 0,2 C 0,0 C 78 % 85 % 0 % 1007,7 hPa 0,0 l/m 0,8 km/h (0 Bft) N 0 0 min -2,0 C 0,2 C 2,4 km/h (1 Bft)
08.01.2016 21:50 1,2 C 22,1 C 0,4 C 0,8 C -0,1 C 0,0 C 78 % 85 % 0 % 1007,5 hPa 0,0 l/m 1,1 km/h (1 Bft) W-SW 247 0 min -2,2 C -0,1 C 3,1 km/h (1 Bft)
08.01.2016 21:55 1,2 C 22,1 C 0,3 C 0,7 C -0,2 C 0,0 C 78 % 85 % 0 % 1007,5 hPa 0,0 l/m 0,6 km/h (0 Bft) W-SW 247 0 min -2,2 C -0,2 C 0,0 km/h (0 Bft)
08.01.2016 22:00 0,9 C 22,1 C -0,3 C 0,4 C -0,5 C 0,0 C 78 % 85 % 0 % 1007,5 hPa 0,0 l/m 0,2 km/h (0 Bft) N-NW 337 0 min -2,5 C -0,5 C 0,0 km/h (0 Bft)
08.01.2016 22:05 0,8 C 22,1 C -0,5 C 0,3 C -0,7 C 0,0 C 78 % 85 % 0 % 1007,5 hPa 0,0 l/m 0,0 km/h (0 Bft) N-NO 22 0 min -2,6 C -0,7 C 0,0 km/h (0 Bft)
08.01.2016 22:10 0,5 C 22,1 C -0,7 C 0,1 C -0,8 C 0,0 C 79 % 85 % 0 % 1007,8 hPa 0,0 l/m 0,0 km/h (0 Bft) NO 45 0 min -2,7 C -0,8 C 0,0 km/h (0 Bft)
08.01.2016 22:15 0,4 C 22,1 C -0,9 C 0,0 C -0,9 C 0,0 C 79 % 85 % 0 % 1007,8 hPa 0,0 l/m 0,0 km/h (0 Bft) N-NO 22 0 min -2,8 C -0,9 C 0,0 km/h (0 Bft)
08.01.2016 22:20 0,3 C 22,1 C -0,9 C -0,2 C -1,1 C 0,0 C 79 % 86 % 0 % 1007,8 hPa 0,0 l/m 0,0 km/h (0 Bft) O-NO 67 0 min -2,9 C -1,1 C 0,0 km/h (0 Bft)
08.01.2016 22:25 0,3 C 22,1 C -1,1 C -0,2 C -1,1 C 0,0 C 79 % 86 % 0 % 1007,8 hPa 0,0 l/m 0,0 km/h (0 Bft) O-NO 67 0 min -2,9 C -1,1 C 0,0 km/h (0 Bft)
08.01.2016 22:30 0,1 C 22,1 C -1,1 C -0,3 C -1,1 C 0,0 C 80 % 86 % 0 % 1007,8 hPa 0,0 l/m 0,0 km/h (0 Bft) O 90 0 min -2,9 C -1,1 C 0,0 km/h (0 Bft)
08.01.2016 22:35 0,0 C 22,1 C -1,2 C -0,4 C -1,2 C 0,0 C 80 % 87 % 0 % 1007,8 hPa 0,0 l/m 0,0 km/h (0 Bft) O-NO 67 0 min -3,0 C -1,2 C 0,0 km/h (0 Bft)
08.01.2016 22:40 -0,1 C 22,2 C -1,1 C -0,5 C -1,3 C 0,0 C 80 % 87 % 0 % 1007,8 hPa 0,0 l/m 0,0 km/h (0 Bft) O 90 0 min -3,1 C -1,3 C 0,0 km/h (0 Bft)
08.01.2016 22:45 -0,1 C 22,2 C -1,3 C -0,5 C -1,4 C 0,0 C 80 % 87 % 0 % 1007,8 hPa 0,0 l/m 0,0 km/h (0 Bft) O-NO 67 0 min -3,1 C -1,4 C 0,0 km/h (0 Bft)
08.01.2016 22:50 -0,4 C 22,2 C -1,3 C -0,8 C -1,5 C 0,0 C 80 % 87 % 0 % 1008,6 hPa 0,0 l/m 0,0 km/h (0 Bft) O 90 0 min -3,4 C -1,5 C 0,0 km/h (0 Bft)
08.01.2016 22:55 -0,5 C 22,2 C -1,3 C -0,8 C -1,4 C 0,0 C 81 % 88 % 0 % 1008,6 hPa 0,0 l/m 0,3 km/h (0 Bft) O-NO 67 0 min -3,3 C -1,4 C 1,9 km/h (1 Bft)
08.01.2016 23:00 -0,5 C 22,2 C -1,3 C -0,8 C -1,4 C 0,0 C 81 % 88 % 0 % 1008,6 hPa 0,0 l/m 1,1 km/h (1 Bft) O-NO 67 0 min -3,3 C -1,4 C 2,3 km/h (1 Bft)
08.01.2016 23:05 -0,7 C 22,2 C -1,1 C -0,9 C -1,3 C 0,0 C 81 % 88 % 0 % 1008,6 hPa 0,0 l/m 1,4 km/h (1 Bft) O-NO 67 0 min -3,5 C -1,3 C 1,8 km/h (1 Bft)
08.01.2016 23:10 -0,8 C 22,2 C -1,3 C -1,0 C -1,4 C 0,0 C 81 % 88 % 0 % 1008,0 hPa 0,0 l/m 1,0 km/h (0 Bft) O-NO 67 0 min -3,6 C -1,4 C 0,0 km/h (0 Bft)
08.01.2016 23:15 -0,9 C 22,2 C -1,3 C -1,1 C -1,4 C 0,0 C 81 % 88 % 0 % 1008,0 hPa 0,0 l/m 0,3 km/h (0 Bft) O-NO 67 0 min -3,7 C -1,4 C 0,0 km/h (0 Bft)
08.01.2016 23:20 -0,9 C 22,1 C -1,7 C -1,1 C -1,6 C 0,0 C 81 % 88 % 0 % 1008,0 hPa 0,0 l/m 0,0 km/h (0 Bft) SW 225 0 min -3,7 C -1,6 C 0,0 km/h (0 Bft)
08.01.2016 23:25 -1,1 C 22,2 C -1,7 C -1,4 C -2,0 C 0,0 C 81 % 88 % 0 % 1008,0 hPa 0,0 l/m 0,0 km/h (0 Bft) W-SW 247 0 min -3,9 C -2,0 C 0,0 km/h (0 Bft)
08.01.2016 23:30 -1,3 C 22,2 C -1,9 C -1,7 C -2,4 C 0,0 C 81 % 88 % 0 % 1008,2 hPa 0,0 l/m 0,0 km/h (0 Bft) NO 45 0 min -4,1 C -2,4 C 0,0 km/h (0 Bft)
08.01.2016 23:35 -1,5 C 22,1 C -2,0 C -1,8 C -2,5 C 0,0 C 81 % 88 % 0 % 1008,2 hPa 0,0 l/m 0,0 km/h (0 Bft) N-NO 22 0 min -4,3 C -2,5 C 0,0 km/h (0 Bft)
08.01.2016 23:40 -1,7 C 22,1 C -2,1 C -2,1 C -2,8 C 0,0 C 81 % 88 % 0 % 1008,2 hPa 0,0 l/m 0,0 km/h (0 Bft) N-NO 22 0 min -4,5 C -2,8 C 0,0 km/h (0 Bft)
08.01.2016 23:45 -1,7 C 22,2 C -2,1 C -2,2 C -3,1 C 0,0 C 81 % 88 % 0 % 1008,2 hPa 0,0 l/m 0,0 km/h (0 Bft) N-NO 22 0 min -4,5 C -3,1 C 0,0 km/h (0 Bft)
08.01.2016 23:50 -2,0 C 22,1 C -2,3 C -2,4 C -3,3 C 0,0 C 81 % 88 % 0 % 1007,9 hPa 0,0 l/m 0,0 km/h (0 Bft) N-NO 22 0 min -4,8 C -3,3 C 0,0 km/h (0 Bft)
08.01.2016 23:55 -2,1 C 22,2 C -2,3 C -2,5 C -3,4 C 0,0 C 81 % 89 % 0 % 1007,9 hPa 0,0 l/m 0,0 km/h (0 Bft) N-NO 22 0 min -4,9 C -3,4 C 0,0 km/h (0 Bft)
_ Min-Zeit 23:55 00:10 23:50 23:55 23:55 00:10 14:15 14:20 00:00 00:30 - 22:05 - - - 23:55 23:55 04:20
Minimum _ -2,1 C 21,1 C -2,3 C -2,5 C -3,4 C 0,0 C 63 % 70 % 0 % 998,1 hPa - 0,0 km/h (0 Bft) - - - -4,9 C -3,4 C 0,0 km/h (0 Bft)
_ Max-Zeit 14:20 20:30 14:10 14:10 14:10 14:10 00:10 00:10 14:10 22:50 02:10 02:50 - - 00:00 02:25 14:10 02:55
Maximum _ 6,4 C 22,2 C 5,5 C 7,9 C 7,4 C 1,6 C 84 % 90 % 42 % 1008,6 hPa 0,7 l/m 13,5 km/h
S (3 Bft)
- - 0 min 1,3 C 5,4 C 28,2 km/h
SW (4 Bft)
Durchschnitt _ 3,6 C 21,6 C 2,7 C 3,2 C 2,0 C 0,1 C 74 % 81 % 2 % 1003,9 hPa #0,7 l/m 6,3 km/h (2 Bft) SW - #0 min. -0,6 C 0,6 C 8,5 km/h (2 Bft)
2016 www.wetterstation-wechselburg.de